[[{"header":{"parameterUnit":"m.s-1","parameterCategory":1,"la1":30.2991,"la2":30.254,"lo1":-89.0895,"lo2":-89.0444,"dy":0.0017,"dx":0.0017,"nx":28,"ny":28,"refTime":"2025-08-13T03:00:00:Z","depth":0,"parameterNumber":2,"parameterNumberName":"U-component_of_WINDS"},"data":[0,0,0,0,0,0,0,0,0,0,0,0,0,0,0,0,0,0,0,0,0,0,0,0,0,0,0,0,0,0,0,0,0,0,0,0,0,0,0,0,0,0,0,0,0,0,0,0,0,0,0,0,0,0,0,0,0,0,1.2007,1.2006,0,1.1918,1.1917,1.1916,1.1781,1.1778,1.1776,1.1773,1.1686,1.1686,1.1686,0,0,0,0,0,0,0,0,0,0,0,0,0,1.2063,1.2063,1.2008,1.2006,1.2005,1.1918,1.1917,1.1916,1.1781,1.1778,1.1775,1.1772,1.1686,1.1686,1.1686,0,0,0,0,0,0,0,0,0,0,0,0,0,1.2013,1.2063,1.2008,1.1927,1.1919,1.1918,1.1917,1.1915,1.1782,1.1778,1.1774,1.1771,1.1686,1.1686,1.1686,1.1757,0,0,1.1685,1.1685,0,0,0,0,0,0,0,0,1.2016,1.2011,1.194,1.1933,1.1924,1.1857,1.1904,1.1863,1.1782,1.1834,1.1773,1.1769,1.1746,1.174,1.1732,1.1753,1.1749,1.1685,1.1685,1.1685,1.1685,0,0,0,0,0,0,0,1.202,1.2014,1.1972,1.194,1.1929,1.1896,1.1885,1.1896,1.1811,1.1829,1.1819,1.181,1.1741,1.1732,1.1729,1.1748,1.1685,1.1685,1.1685,1.1685,1.1821,1.1825,0,0,0,0,0,0,1.2035,1.2018,1.1975,1.1969,1.1962,1.1898,1.1886,1.1882,1.1811,1.1796,1.1813,1.1804,1.1734,1.1729,1.1725,1.1803,1.1685,1.1685,1.1685,1.1818,1.1822,1.1826,0,0,0,0,0,0,1.2036,1.2032,1.1979,1.1991,1.1981,1.1901,1.1898,1.1882,1.1873,1.1799,1.1783,1.182,1.1731,1.1725,1.1749,1.1799,1.1685,1.1685,1.1813,1.1819,1.1824,1.1962,0,0,0,0,0,0,1.2039,1.2034,1.206,1.1992,1.1981,1.2005,1.1901,1.1883,1.1873,1.186,1.1801,1.1788,1.1728,1.175,1.1749,1.1796,1.1685,1.1809,1.1816,1.1822,1.1952,1.1971,1.1987,0,0,0,0,0,1.2041,1.2103,1.2062,1.2058,1.2012,1.2008,1.2001,1.193,1.1878,1.1904,1.1855,1.179,1.1793,1.1754,1.1752,1.1799,1.1805,1.1814,1.1822,1.1945,1.1967,1.1987,0,0,0,0,0,0,1.2181,1.2093,1.2046,1.2089,1.2056,1.1985,1.2015,1.1957,1.194,1.1929,1.1841,1.1829,1.1865,1.1834,1.1792,1.1864,1.1789,1.1797,1.1883,1.1904,1.1921,1.1929,1.1684,0,0,0,0,0,1.2216,1.2219,1.2142,1.2187,1.2173,1.2097,1.2093,1.204,1.2003,1.199,1.1943,1.1911,1.1904,1.1902,1.1892,1.1946,1.1931,1.1978,1.1995,1.201,1.2019,1.2044,1.2064,1.1854,1.1854,1.1853,0,0,1.229,1.2242,1.225,1.2214,1.2182,1.2188,1.2087,1.2097,1.21,1.1991,1.2011,1.1976,1.1934,1.1973,1.1988,1.1949,1.2073,1.2021,1.2033,1.2033,1.2055,1.2075,1.2092,1.1859,1.1858,1.1857,0,0,1.2427,1.2391,1.2424,1.2394,1.2347,1.2296,1.2304,1.224,1.2212,1.223,1.2148,1.2151,1.2141,1.2115,1.21,1.2224,1.2163,1.2223,1.2315,1.2341,1.2357,1.2372,1.2416,1.2433,1.2232,1.2232,1.2232,0,1.2526,1.2529,1.2449,1.2463,1.2449,1.2349,1.2381,1.2356,1.231,1.2303,1.2259,1.2244,1.2209,1.224,1.227,1.2261,1.2268,1.2231,1.2361,1.2375,1.2387,1.2428,1.2445,1.224,1.2239,1.2238,1.2237,0,1.2652,1.2656,1.2687,1.2643,1.2632,1.2656,1.258,1.2579,1.2526,1.248,1.2498,1.2452,1.243,1.2433,1.2383,1.2457,1.2434,1.2377,1.23,1.2416,1.2453,1.2468,1.2251,1.2248,1.2246,1.2244,0,0,1.2878,1.2785,1.2799,1.2777,1.2716,1.2718,1.2736,1.2713,1.2714,1.2684,1.2698,1.2691,1.2637,1.262,1.2565,1.2588,1.2689,1.2527,1.2525,1.256,1.2767,1.2811,1.2831,1.2647,1.265,1.2652,1.277,0,1.3003,1.3029,1.2956,1.3,1.3002,1.2906,1.2921,1.2886,1.2843,1.2838,1.279,1.2786,1.2715,1.2704,1.2722,1.2673,1.2729,1.2663,1.266,1.2661,1.2675,1.285,1.2898,1.3012,1.2785,1.2787,1.2789,0,1.3154,1.3131,1.3175,1.311,1.3108,1.3124,1.3096,1.3092,1.305,1.3017,1.2997,1.2932,1.2946,1.2871,1.2888,1.2845,1.2838,1.2814,1.2816,1.2815,1.2733,1.2854,1.3047,1.3065,1.2811,1.2809,1.2808,0,1.3315,1.3294,1.3317,1.3301,1.3226,1.3239,1.3209,1.3162,1.3153,1.3128,1.3121,1.3099,1.3088,1.3072,1.3003,1.2955,1.3029,1.2948,1.3002,1.3004,1.3024,1.3024,1.3219,1.3018,1.3018,1.3017,1.3017,0,1.3464,1.3495,1.3388,1.3403,1.3434,1.3349,1.3383,1.3343,1.3302,1.3307,1.3222,1.3229,1.3137,1.3133,1.3079,1.3102,1.3097,1.3071,1.3056,1.3079,1.3083,1.3075,1.3066,1.3022,1.3021,1.302,1.3019,0,1.365,1.3579,1.3598,1.3524,1.3507,1.3533,1.347,1.3481,1.343,1.3438,1.3435,1.3356,1.3348,1.3276,1.3253,1.3216,1.3259,1.3229,1.3274,1.3264,1.3322,1.3318,1.3521,1.3543,1.3328,1.333,1.3332,0,1.3751,1.3772,1.3699,1.3696,1.3669,1.3665,1.3654,1.357,1.3562,1.3514,1.3531,1.3514,1.3497,1.3488,1.3429,1.341,1.3379,1.3451,1.3376,1.3398,1.3381,1.3381,1.3383,1.3468,1.3471,1.3473,1.3475,0,1.3936,1.39,1.3886,1.386,1.3849,1.3825,1.3796,1.3798,1.3705,1.3701,1.369,1.3676,1.365,1.3636,1.3605,1.3574,1.351,1.3499,1.351,1.3535,1.356,1.3548,1.3319,1.3495,1.3493,1.3492,1.3491,1.349,1.4083,1.4097,1.4047,1.4035,1.4003,1.3978,1.3983,1.3932,1.3922,1.3893,1.3844,1.3841,1.3795,1.3748,1.3722,1.3718,1.368,1.3697,1.3701,1.3707,1.3719,1.3559,1.3712,1.3711,1.3711,1.371,1.371,0,1.4265,1.4227,1.4217,1.4177,1.4167,1.4105,1.4068,1.4065,1.4062,1.4025,1.4009,1.3996,1.398,1.3919,1.3897,1.3906,1.3876,1.3903,1.3903,1.3896,1.3754,1.3747,1.3928,1.3928,1.3928,1.3928,1.3928,1.3928,1.4358,1.4378,1.4336,1.4339,1.4301,1.4296,1.428,1.4256,1.4225,1.4214,1.42,1.416,1.4113,1.4086,1.4069,1.4051,1.4048,1.4085,1.4059,1.3927,1.3906,1.3887,1.3879,1.4085,1.4085,1.4201,1.4202,1.4203]},{"header":{"parameterUnit":"m.s-1","parameterCategory":1,"la1":30.2991,"la2":30.254,"lo1":-89.0895,"lo2":-89.0444,"dy":0.0017,"dx":0.0017,"nx":28,"ny":28,"refTime":"2025-08-13T03:00:00:Z","depth":0,"parameterNumber":3,"parameterNumberName":"V-component_of_WINDS"},"data":[0,0,0,0,0,0,0,0,0,0,0,0,0,0,0,0,0,0,0,0,0,0,0,0,0,0,0,0,0,0,0,0,0,0,0,0,0,0,0,0,0,0,0,0,0,0,0,0,0,0,0,0,0,0,0,0,0,0,3.8667,3.8671,0,3.905,3.9054,3.9058,3.914,3.9137,3.9134,3.9131,3.9526,3.9538,3.9551,0,0,0,0,0,0,0,0,0,0,0,0,0,3.8006,3.8018,3.8666,3.8671,3.8676,3.9049,3.9054,3.9059,3.914,3.9137,3.9133,3.913,3.9521,3.9537,3.9553,0,0,0,0,0,0,0,0,0,0,0,0,0,3.8331,3.8022,3.8665,3.8761,3.8773,3.9048,3.9054,3.9061,3.9141,3.9137,3.9132,3.9128,3.9516,3.9535,3.9555,3.9762,0,0,3.9615,3.9624,0,0,0,0,0,0,0,0,3.8313,3.8355,3.8742,3.8755,3.8769,3.9042,3.8966,3.9296,3.9142,3.9001,3.9131,3.9126,3.9368,3.94,3.9481,3.978,3.9797,3.9617,3.9629,3.9637,3.9643,0,0,0,0,0,0,0,3.829,3.8339,3.8818,3.8748,3.8764,3.8785,3.8827,3.9029,3.9204,3.9013,3.902,3.9064,3.9375,3.9462,3.9491,3.9803,3.9616,3.9634,3.9646,3.9654,4.0291,4.0295,0,0,0,0,0,0,3.825,3.832,3.8806,3.8829,3.8526,3.8801,3.8847,3.8959,3.9202,3.9235,3.9068,3.9067,3.9431,3.9468,3.9505,3.9764,3.9637,3.9656,3.9667,4.0286,4.0292,4.0297,0,0,0,0,0,0,3.8236,3.8293,3.879,3.8577,3.8642,3.8817,3.8942,3.8969,3.9056,3.9243,3.9275,3.9124,3.9429,3.9478,3.9697,3.9778,3.9664,3.9682,4.028,4.0287,4.0294,4.0281,0,0,0,0,0,0,3.8217,3.8287,3.8367,3.8578,3.8653,3.8975,3.8947,3.8979,3.909,3.9092,3.9305,3.9336,3.9429,3.9667,3.9717,3.9804,3.9698,4.0273,4.0283,4.0292,4.0275,4.0288,4.0298,0,0,0,0,0,3.8193,3.8349,3.8371,3.8429,3.8756,3.898,3.9023,3.9126,3.9096,3.9178,3.9298,3.9329,3.9761,3.9689,3.9745,3.9839,4.0268,4.028,4.0291,4.027,4.0285,4.0298,0,0,0,0,0,0,3.8144,3.8378,3.8405,3.8634,3.8786,3.8993,3.91,3.9139,3.9303,3.9299,3.9421,3.9468,3.968,3.9782,3.9697,4.0052,4.0014,4.0037,3.9978,3.9994,4.0005,3.9976,3.9714,0,0,0,0,0,3.8159,3.8321,3.8517,3.87,3.8775,3.8924,3.9025,3.9091,3.9254,3.9319,3.9456,3.9613,3.9784,3.9895,4.0063,4.029,4.0338,4.0383,4.0394,4.0402,4.0421,4.0549,4.0572,4.0335,4.0335,4.0335,0,0,3.8194,3.8342,3.8436,3.8694,3.882,3.8984,3.8978,3.9152,3.9276,3.9346,3.9562,3.9667,3.9851,4.0075,4.0181,4.0166,4.0497,4.0417,4.0422,4.0437,4.0563,4.0586,4.0605,4.0343,4.0341,4.034,0,0,3.8341,3.8469,3.8635,3.8761,3.8951,3.9049,3.9089,3.929,3.9363,3.9581,3.9637,3.9786,4.0078,4.0207,4.0311,4.0505,4.054,4.0557,4.0617,4.074,4.0759,4.0776,4.0846,4.0869,4.0575,4.0575,4.0575,0,3.836,3.861,3.8716,3.8888,3.9,3.907,3.924,3.9357,3.9592,3.9668,3.9648,4.0017,4.0146,4.0401,4.0448,4.053,4.0579,4.0533,4.0747,4.0766,4.0783,4.0851,4.0877,4.0576,4.0576,4.0576,4.0575,0,3.8623,3.8796,3.8907,3.9132,3.9257,3.9426,3.9559,3.9672,3.9727,3.9827,4.0048,4.0205,4.0406,4.0472,4.0528,4.0736,4.0721,4.0723,4.0686,4.0805,4.0871,4.0898,4.0577,4.0577,4.0576,4.0576,0,0,3.8751,3.9032,3.9071,3.9174,3.9388,3.9524,3.9697,3.9893,3.9988,4.0148,4.0296,4.0542,4.0545,4.0662,4.0734,4.0842,4.0987,4.0831,4.0837,4.0855,4.1225,4.1223,4.1251,4.1011,4.1016,4.102,4.121,0,3.8924,3.9235,3.9335,3.9594,3.9755,3.9824,3.9975,4.0123,4.0221,4.0372,4.0481,4.0653,4.0644,4.0716,4.0826,4.0945,4.1063,4.0933,4.1151,4.1157,4.1103,4.1286,4.1284,4.1455,4.1236,4.1241,4.1244,0,3.9168,3.933,3.9605,3.9799,3.9871,4.0004,4.0192,4.0335,4.0505,4.0569,4.0699,4.0762,4.0946,4.0898,4.1154,4.1064,4.1159,4.1231,4.124,4.1265,4.1208,4.1316,4.1513,4.1538,4.1286,4.1282,4.1279,0,3.9233,3.9521,3.9723,3.9809,4.004,4.0133,4.0234,4.0399,4.051,4.0674,4.0748,4.0931,4.1032,4.1173,4.1283,4.1238,4.1529,4.1491,4.1588,4.1585,4.1647,4.1642,4.1862,4.1707,4.1707,4.1706,4.1705,0,3.9416,3.9581,3.9755,3.9879,4.0067,4.0181,4.0364,4.0468,4.0615,4.0761,4.0832,4.0968,4.1105,4.1259,4.1347,4.1546,4.1591,4.1648,4.1669,4.1642,4.1635,4.1707,4.1698,4.1713,4.1712,4.171,4.1709,0,3.9521,3.9644,3.9869,4.0069,4.0123,4.0253,4.0425,4.0548,4.0649,4.0833,4.0882,4.1041,4.1226,4.135,4.1587,4.1646,4.1862,4.1881,4.1804,4.1815,4.1905,4.1895,4.218,4.2224,4.2038,4.204,4.2041,0,3.963,3.9759,3.9973,4.0075,4.0176,4.0341,4.0454,4.0571,4.0687,4.0889,4.0989,4.1178,4.1336,4.1628,4.1765,4.1947,4.1971,4.2058,4.1999,4.1967,4.1973,4.1964,4.1978,4.2067,4.2069,4.207,4.2071,0,3.981,3.9864,4.0025,4.0208,4.0341,4.049,4.064,4.072,4.0863,4.099,4.1179,4.1301,4.1543,4.173,4.1925,4.203,4.2075,4.2088,4.2121,4.2095,4.2045,4.2073,4.183,4.2082,4.2081,4.208,4.2079,4.2079,3.9921,4.0039,4.0208,4.0384,4.0509,4.0647,4.0773,4.0889,4.1049,4.1254,4.1313,4.1511,4.1678,4.1943,4.2051,4.2208,4.22,4.2246,4.2258,4.2268,4.2268,4.2019,4.2244,4.2244,4.2244,4.2243,4.2243,0,4.0105,4.0217,4.0378,4.0585,4.0724,4.0753,4.0921,4.1035,4.1208,4.1359,4.1513,4.1731,4.1913,4.2063,4.2252,4.2348,4.2374,4.2394,4.2388,4.2412,4.2265,4.2218,4.237,4.237,4.237,4.237,4.237,4.237,4.0217,4.0418,4.0492,4.0756,4.0867,4.106,4.1153,4.1281,4.1403,4.1642,4.1794,4.189,4.2042,4.2242,4.241,4.245,4.2516,4.2532,4.2576,4.2436,4.2422,4.2408,4.2365,4.2545,4.2545,4.271,4.2712,4.2713]}]]